星链-5088 (STARLINK-5088 )

导读

STARLINK-5088是美国SpaceX公司星链(Starlink)项目的卫星,于2022年10月5日发射入轨。星链项目计划在近地轨道部署上万颗卫星,旨在为全球偏远、基础设施匮乏地区提供低延迟、高速宽带互联网服务。该卫星作为星链星座的组成部分,助力服务覆盖范围扩展,目前星链已在全球百余个国家提供服务,推动卫星互联网走进更多应用场景。

基本信息
目录编号:
54000
目录名称:
STARLINK-5088
国际标识:
2022-125AN
轨道中心:
EARTH
卫星名称:
星链-5088
卫星全名:
星链-5088 (STARLINK-5088 )
卫星状态:
在轨 (已飞行1355 天)
发射日期:
2022-10-05 UTC
国别 :
美国 (US)
星等 :
--
轨道信息
数据来源 国际轨道数据 AOE轨道数据
星历时间 2026-06-20T12:27:33+0800
1天前
查看轨道信息
2026-06-17T02:00:00+0800
4天前
查看轨道信息
半长轴 6917.913km 6917.869km
偏心率 0.0001443 0.000153
轨道倾角 53.160° 53.159°
近地点辐角 89.499° 77.295°
升交点赤经 104.073° 119.517°
平近点角 270.617° 330.069°
近地点 538.777km 538.673km
远地点 540.775km 540.791km
周期 95.438分钟 95.437分钟
每日圈数 15.088295 15.08844
详细信息
固有亮度:
5
最大亮度:
2.5
卫星平台:
Starlink v1.5
覆盖范围:
全球
运营商:
太空探索技术公司
运营商所在国:
美国
制造商(研发单位):
太空探索技术公司
制造商所在国:
美国
使用方式:
暂无
卫星简介
星链(Starlink)计划是由太空探索技术公司(SpaceX)提出的一个巨型低轨卫星互联网星座项目,计划在2019年至2024年间在太空搭建由约1.2万颗卫星组成的“星链”网络,其中1584颗将部署在地球上空550千米处的近地轨道,并从2020年开始工作。该卫星仍在工作。
2D轨道图
3D轨道图
轨道高度分析图
轨道倾角分析图
轨道综合分析图
查看轨道综合分析图